Location: Newark
(57.9988°N, 22.0181°E)
Time: 02:18:32
(UTC+00:00)

ISS - Visible Passes

Search period start: 21 September 2021 00:00
Search period end: 01 October 2021 00:00
Orbit: 419 x 423 km, 51.6° (Epoch: 20 September)

Date Brightness Start Highest point End Pass type
(mag) Time Alt. Az. Time Alt. Az. Time Alt. Az.
21 Sep -2.4 18:11:39 10° SW 18:14:21 23° SSE 18:14:52 22° SSE visible
21 Sep -0.9 19:47:41 10° WSW 19:47:52 11° WSW 19:47:52 11° WSW visible
22 Sep -2.0 17:25:07 10° SSW 17:27:37 19° SSE 17:29:49 12° ESE visible
22 Sep -2.1 19:00:55 10° WSW 19:02:49 23° SSW 19:02:49 23° SSW visible
23 Sep -2.6 18:14:10 10° SW 18:17:05 27° S 18:17:42 25° SSE visible
23 Sep -0.8 19:50:37 10° WSW 19:50:41 10° WSW 19:50:41 10° WSW visible
24 Sep -2.3 17:27:28 10° SW 17:30:19 25° S 17:32:33 14° ESE visible
24 Sep -1.9 19:03:44 10° WSW 19:05:33 21° SW 19:05:33 21° SW visible
25 Sep -2.5 18:16:54 10° WSW 18:19:50 27° S 18:20:23 26° SSE visible
26 Sep -2.4 17:30:07 10° WSW 17:33:03 28° S 17:35:12 15° SE visible
26 Sep -1.5 19:06:46 10° WSW 19:08:11 17° SW 19:08:11 17° SW visible
27 Sep -2.1 18:19:49 10° WSW 18:22:32 22° SSW 18:23:01 22° S visible
28 Sep -2.2 17:32:56 10° WSW 17:35:47 25° S 17:37:51 14° SE visible
28 Sep -1.0 19:10:17 10° WSW 19:10:51 12° SW 19:10:51 12° SW visible
29 Sep -1.5 18:23:00 10° WSW 18:25:09 16° SSW 18:25:42 15° SSW visible
30 Sep -1.6 17:35:56 10° WSW 17:38:25 19° SSW 17:40:36 11° SSE visible
